W4FAA Weather Reports


time (UTC)temp
C
wind
direction
speed
KPH
gust
KPH
rain 1hr
cm
rain 24hr
cm
rain mn
cm
humidity
%
barometer
mb
20260503053025 21 351 0.0 0.0 0.00 0.00 0.00 95 1014.0
20260503051524 21 352 0.0 0.0 0.00 0.00 0.00 95 1014.4
20260503050014 21 252 0.0 0.0 0.00 0.00 0.00 95 1014.4
20260503044518 21 252 0.0 0.0 0.00 0.00 0.00 95 1014.4
20260503043023 21 352 0.0 0.0 0.00 0.00 0.00 95 1014.4
20260503041528 21 352 0.0 0.0 0.00 0.00 0.00 95 1014.4
20260503040026 21 360 0.0 0.0 0.00 0.00 0.00 95 1014.1
20260503034516 21 360 0.0 0.0 0.00 0.00 0.00 94 1013.7
20260503033026 21 51 0.0 0.0 0.00 0.00 0.00 94 1013.5
20260503031527 21 9 0.0 0.0 0.00 0.00 0.00 94 1013.3
20260503030028 21 9 0.0 0.0 0.00 0.00 0.00 93 1012.9
20260503024511 21 352 0.0 0.0 0.00 0.00 0.00 93 1013.0
20260503023019 21 267 0.0 11.3 0.00 0.00 0.00 93 1013.3
20260503021524 21 234 6.4 11.3 0.00 0.00 0.00 93 1013.3
20260503020024 21 351 6.4 11.3 0.00 0.00 0.00 93 1013.4
20260503014525 21 236 1.6 12.9 0.00 0.00 0.00 93 1012.5
20260503013015 21 248 0.0 1.6 0.00 0.00 0.00 93 1012.0
20260503011520 21 234 8.0 12.9 0.00 0.00 0.00 94 1012.0
20260503010026 21 42 1.6 17.7 0.00 0.00 0.00 94 1012.0
20260503004531 21 173 4.8 12.9 0.00 0.00 0.00 94 1011.6
20260503003046 21 49 0.0 14.5 0.00 0.00 0.00 94 1011.0
20260503001541 21 141 3.2 12.9 0.00 0.00 0.00 94 1011.1
20260503000023 21 136 4.8 8.0 0.00 0.00 0.00 94 1011.3
20260502234533 21 113 0.0 8.0 0.00 0.00 0.00 94 1011.7
20260502233031 21 150 1.6 4.8 0.00 0.00 0.00 93 1011.7
20260502231528 21 130 0.0 0.0 0.00 0.00 0.00 93 1011.7
20260502230031 21 352 0.0 0.0 0.00 0.00 0.00 94 1011.9
20260502224506 21 351 0.0 11.3 0.00 0.00 0.00 94 1011.9
20260502223015 21 254 0.0 1.6 0.00 0.00 0.00 94 1011.5
20260502221514 21 352 0.0 16.1 0.00 0.00 0.00 93 1011.4
20260502220022 21 351 19.3 33.8 0.00 0.00 0.00 90 1012.5
20260502214504 25 351 24.1 41.8 0.00 0.00 0.00 73 1011.7
20260502213006 28 351 9.7 19.3 0.00 0.00 0.00 63 1011.1
20260502211517 28 269 12.9 19.3 0.00 0.00 0.00 60 1010.6
20260502210017 28 340 14.5 22.5 0.00 0.00 0.00 59 1010.4
20260502204523 29 265 12.9 24.1 0.00 0.00 0.00 60 1010.3
20260502203005 30 351 20.9 29.0 0.00 0.00 0.00 58 1010.3
20260502201514 30 351 22.5 33.8 0.00 0.00 0.00 56 1010.3
20260502200016 30 251 25.7 33.8 0.00 0.00 0.00 53 1010.4
20260502194528 31 259 25.7 40.2 0.00 0.00 0.00 55 1010.4
20260502193025 31 267 22.5 33.8 0.00 0.00 0.00 56 1010.2
20260502191507 31 188 20.9 45.1 0.00 0.00 0.00 56 1010.4
20260502190011 31 252 17.7 40.2 0.00 0.00 0.00 57 1010.6
20260502184522 31 261 25.7 48.3 0.00 0.00 0.00 56 1010.7
20260502183023 31 253 30.6 46.7 0.00 0.00 0.00 56 1010.8
20260502181508 31 19 27.4 38.6 0.00 0.00 0.00 57 1011.1
20260502163029 30 264 29.0 51.5 0.00 0.00 0.00 60 1011.5
20260502161524 30 244 22.5 43.5 0.00 0.00 0.00 64 1011.6
20260502151523 28 232 32.2 45.1 0.00 0.00 0.00 68 1011.6
20260502123014 22 17 0.0 4.8 0.00 0.00 0.00 93 1010.7
20260502121519 21 137 0.0 12.9 0.00 0.00 0.00 95 1010.7
20260502114524 18 111 3.2 9.7 0.00 0.00 0.00 96 1010.5
20260502113012 18 150 4.8 11.3 0.00 0.00 0.00 96 1010.4
20260502111516 17 139 6.4 8.0 0.00 0.00 0.00 96 1010.3
20260502110025 17 149 0.0 0.0 0.00 0.00 0.00 96 1010.5
20260502104534 17 133 0.0 0.0 0.00 0.00 0.00 96 1010.5
20260502103028 18 126 0.0 0.0 0.00 0.00 0.00 96 1010.6
20260502101514 18 132 0.0 0.0 0.00 0.00 0.00 96 1010.6
20260502091511 17 140 0.0 1.6 0.00 0.00 0.00 96 1011.0
20260502071527 18 112 0.0 0.0 0.00 0.00 0.00 95 1011.0
20260502070033 18 112 0.0 0.0 0.00 0.00 0.00 95 1011.0
20260502064517 18 112 0.0 0.0 0.00 0.00 0.00 94 1011.0
20260502063027 18 112 0.0 0.0 0.00 0.00 0.00 94 1011.3
20260502061528 19 112 0.0 0.0 0.00 0.00 0.00 94 1011.2
20260502060032 19 112 0.0 0.0 0.00 0.00 0.00 94 1011.4
20260502054532 19 112 0.0 0.0 0.00 0.00 0.00 94 1011.4